When you browse on this site, cookies collect data to enhance your experience and personalize the content and advertising you see.
Visit our Privacy Policy to learn more. By continuing to use the site, you agree to this use of cookies and data.
  • In Hungary
  • List of Countries
  • For 7 days
  • Water Temperature
  • Weather Map
  • News
  • Weather Widgets
  • user-avatar
    Login

    Hourly Weather Valparaiso

    Today, 4 April, Saturday

    Time Temperature Precipitation Wind Pressure Humidity
    00:00 +18°C° 0.8 mm 0 mps 646 mmHg 97%
    01:00 +18°C° 0.8 mm 0 mps 645 mmHg 97%
    02:00 +18°C° 0.5 mm 0 mps 645 mmHg 97%
    03:00 +18°C° 0.5 mm 0 mps 645 mmHg 97%
    04:00 +18°C° 0.5 mm 0 mps 645 mmHg 97%
    05:00 +18°C° 0.1 mm 0 mps 645 mmHg 97%
    06:00 +18°C° 0.1 mm 0 mps 646 mmHg 96%
    07:00 +19°C° 0.1 mm 0 mps 646 mmHg 95%
    08:00 +21°C° 0.2 mm 0 mps 647 mmHg 89%
    09:00 +23°C° 0.2 mm 0 mps 647 mmHg 82%
    10:00 +26°C° 0.2 mm 1 mps 648 mmHg 75%
    11:00 +27°C° 1 mm 1 mps 648 mmHg 73%
    12:00 +27°C° 1 mm 0 mps 647 mmHg 70%
    13:00 +28°C° 1 mm 0 mps 647 mmHg 67%
    14:00 +27°C° 1.3 mm 0 mps 646 mmHg 71%
    15:00 +26°C° 1.3 mm 0 mps 645 mmHg 75%
    16:00 +25°C° 1.3 mm 0 mps 645 mmHg 78%
    17:00 +26°C° 0.6 mm 1 mps 645 mmHg 84%
    18:00 +24°C° 0.6 mm 1 mps 645 mmHg 90%
    19:00 +22°C° 0.6 mm 1 mps 644 mmHg 95%
    20:00 +21°C° 0.2 mm 1 mps 645 mmHg 95%
    21:00 +21°C° 0.2 mm 1 mps 645 mmHg 95%
    22:00 +21°C° 0.2 mm 1 mps 646 mmHg 96%
    23:00 +19°C° 0.4 mm 0 mps 646 mmHg 96%

    Tomorrow, 5 April, Sunday

    Time Temperature Precipitation Wind Pressure Humidity
    00:00 +18°C° 0.4 mm 0 mps 645 mmHg 96%
    01:00 +18°C° 0.4 mm 0 mps 645 mmHg 96%
    02:00 +18°C° 0.5 mm 0 mps 645 mmHg 96%
    03:00 +18°C° 0.5 mm 0 mps 645 mmHg 97%
    04:00 +18°C° 0.5 mm 0 mps 645 mmHg 97%
    05:00 +18°C° 1 mm 0 mps 645 mmHg 97%
    06:00 +19°C° 1 mm 0 mps 646 mmHg 97%
    07:00 +19°C° 1 mm 0 mps 646 mmHg 96%
    08:00 +21°C° 0.3 mm 0 mps 647 mmHg 88%
    09:00 +23°C° 0.3 mm 0 mps 648 mmHg 80%
    10:00 +25°C° 0.3 mm 0 mps 649 mmHg 72%
    11:00 +26°C° 0.7 mm 0 mps 648 mmHg 69%
    12:00 +27°C° 0.7 mm 0 mps 647 mmHg 65%
    13:00 +28°C° 0.7 mm 0 mps 647 mmHg 62%
    14:00 +28°C° 1.1 mm 0 mps 646 mmHg 64%
    15:00 +27°C° 1.1 mm 0 mps 646 mmHg 66%
    16:00 +27°C° 1.1 mm 0 mps 646 mmHg 68%
    17:00 +25°C° 0.8 mm 0 mps 646 mmHg 77%
    18:00 +24°C° 0.8 mm 1 mps 645 mmHg 85%
    19:00 +22°C° 0.8 mm 1 mps 645 mmHg 94%
    20:00 +22°C° 2.3 mm 1 mps 646 mmHg 95%
    21:00 +22°C° 2.3 mm 1 mps 646 mmHg 96%
    22:00 +21°C° 2.3 mm 1 mps 647 mmHg 96%
    23:00 +21°C° 1.3 mm 1 mps 646 mmHg 96%

    Day after tomorrow, 6 April, Monday

    Time Temperature Precipitation Wind Pressure Humidity
    00:00 +19°C° 1.3 mm 0 mps 646 mmHg 97%
    01:00 +19°C° 1.3 mm 0 mps 646 mmHg 97%
    02:00 +19°C° 0.6 mm 0 mps 646 mmHg 97%
    03:00 +18°C° 0.6 mm 0 mps 646 mmHg 97%
    04:00 +18°C° 0.6 mm 0 mps 646 mmHg 97%
    05:00 +19°C° 0.5 mm 0 mps 646 mmHg 97%
    06:00 +19°C° 0.5 mm 0 mps 647 mmHg 96%
    07:00 +19°C° 0.5 mm 0 mps 647 mmHg 96%
    08:00 +20°C° 0.7 mm 0 mps 648 mmHg 94%
    09:00 +21°C° 0.7 mm 0 mps 648 mmHg 91%
    10:00 +23°C° 0.7 mm 0 mps 649 mmHg 89%
    11:00 +24°C° 0.8 mm 0 mps 648 mmHg 84%
    12:00 +25°C° 0.8 mm 0 mps 648 mmHg 79%
    13:00 +28°C° 0.8 mm 1 mps 647 mmHg 75%
    14:00 +27°C° 0.6 mm 1 mps 647 mmHg 75%
    15:00 +27°C° 0.6 mm 1 mps 646 mmHg 76%
    16:00 +25°C° 0.6 mm 0 mps 646 mmHg 77%
    17:00 +23°C° 1.1 mm 0 mps 646 mmHg 82%
    18:00 +24°C° 1.1 mm 1 mps 646 mmHg 88%
    19:00 +22°C° 1.1 mm 1 mps 646 mmHg 94%
    20:00 +20°C° 0.5 mm 0 mps 646 mmHg 95%
    21:00 +20°C° 0.5 mm 0 mps 647 mmHg 95%
    22:00 +19°C° 0.5 mm 0 mps 647 mmHg 96%
    23:00 +19°C° 0.1 mm 0 mps 647 mmHg 96%

    7 April, Tuesday

    Time Temperature Precipitation Wind Pressure Humidity
    00:00 +19°C° 0.1 mm 0 mps 647 mmHg 96%
    01:00 +19°C° 0.1 mm 0 mps 646 mmHg 95%
    02:00 +18°C° 0.1 mm 0 mps 646 mmHg 95%
    03:00 +18°C° 0.1 mm 0 mps 646 mmHg 95%
    04:00 +18°C° 0.1 mm 0 mps 646 mmHg 95%
    05:00 +18°C° 0 mm 0 mps 646 mmHg 95%
    06:00 +19°C° 0 mm 0 mps 647 mmHg 94%
    07:00 +19°C° 0 mm 0 mps 647 mmHg 93%
    08:00 +21°C° 0 mm 0 mps 648 mmHg 84%
    09:00 +25°C° 0 mm 1 mps 648 mmHg 75%
    10:00 +27°C° 0 mm 1 mps 649 mmHg 65%
    11:00 +28°C° 0.4 mm 1 mps 649 mmHg 64%
    12:00 +29°C° 0.4 mm 1 mps 648 mmHg 62%
    13:00 +30°C° 0.4 mm 1 mps 647 mmHg 61%
    14:00 +28°C° 0.5 mm 0 mps 647 mmHg 61%
    15:00 +28°C° 0.5 mm 0 mps 647 mmHg 62%
    16:00 +27°C° 0.5 mm 0 mps 646 mmHg 63%
    17:00 +25°C° 0.4 mm 0 mps 646 mmHg 72%
    18:00 +25°C° 0.4 mm 1 mps 646 mmHg 82%
    19:00 +22°C° 0.4 mm 1 mps 646 mmHg 91%
    20:00 +22°C° 0.8 mm 1 mps 646 mmHg 92%
    21:00 +22°C° 0.8 mm 1 mps 647 mmHg 93%
    22:00 +21°C° 0.8 mm 1 mps 647 mmHg 95%
    23:00 +21°C° 0.1 mm 1 mps 647 mmHg 94%

    8 April, Wednesday

    Time Temperature Precipitation Wind Pressure Humidity
    00:00 +19°C° 0.1 mm 0 mps 646 mmHg 94%
    01:00 +18°C° 0.1 mm 0 mps 646 mmHg 94%
    02:00 +18°C° 0 mm 0 mps 646 mmHg 94%
    03:00 +18°C° 0 mm 0 mps 645 mmHg 94%
    04:00 +18°C° 0 mm 0 mps 645 mmHg 95%
    05:00 +18°C° 0 mm 0 mps 645 mmHg 94%
    06:00 +19°C° 0 mm 0 mps 646 mmHg 93%
    07:00 +19°C° 0 mm 0 mps 646 mmHg 91%
    08:00 +21°C° 0.1 mm 0 mps 647 mmHg 84%
    09:00 +25°C° 0.1 mm 1 mps 648 mmHg 77%
    10:00 +27°C° 0.1 mm 1 mps 648 mmHg 70%
    11:00 +28°C° 0.5 mm 1 mps 648 mmHg 66%
    12:00 +29°C° 0.5 mm 1 mps 647 mmHg 61%
    13:00 +31°C° 0.5 mm 1 mps 647 mmHg 57%
    14:00 +30°C° 0.8 mm 1 mps 646 mmHg 63%
    15:00 +29°C° 0.8 mm 1 mps 646 mmHg 68%
    16:00 +28°C° 0.8 mm 1 mps 645 mmHg 74%
    17:00 +26°C° 0.9 mm 1 mps 645 mmHg 80%
    18:00 +24°C° 0.9 mm 1 mps 645 mmHg 87%
    19:00 +22°C° 0.9 mm 1 mps 645 mmHg 93%
    20:00 +22°C° 1.5 mm 1 mps 646 mmHg 94%
    21:00 +21°C° 1.5 mm 1 mps 646 mmHg 95%
    22:00 +21°C° 1.5 mm 1 mps 647 mmHg 95%
    23:00 +19°C° 1.1 mm 0 mps 646 mmHg 96%

    9 April, Thursday

    Time Temperature Precipitation Wind Pressure Humidity
    00:00 +18°C° 1.1 mm 0 mps 646 mmHg 96%
    01:00 +18°C° 1.1 mm 0 mps 646 mmHg 96%
    02:00 +18°C° 0.4 mm 0 mps 645 mmHg 96%
    03:00 +18°C° 0.4 mm 0 mps 645 mmHg 96%
    04:00 +18°C° 0.4 mm 0 mps 645 mmHg 97%
    05:00 +18°C° 0 mm 0 mps 645 mmHg 96%
    06:00 +18°C° 0 mm 0 mps 646 mmHg 95%
    07:00 +19°C° 0 mm 0 mps 646 mmHg 94%
    08:00 +21°C° 0.2 mm 0 mps 647 mmHg 87%
    09:00 +23°C° 0.2 mm 0 mps 648 mmHg 81%
    10:00 +24°C° 0.2 mm 0 mps 648 mmHg 74%
    11:00 +25°C° 1.2 mm 0 mps 648 mmHg 73%
    12:00 +26°C° 1.2 mm 0 mps 647 mmHg 72%
    13:00 +27°C° 1.2 mm 0 mps 647 mmHg 72%
    14:00 +26°C° 1.5 mm 0 mps 646 mmHg 76%
    15:00 +25°C° 1.5 mm 0 mps 646 mmHg 80%
    16:00 +24°C° 1.5 mm 0 mps 645 mmHg 84%
    17:00 +23°C° 1 mm 0 mps 645 mmHg 88%
    18:00 +23°C° 1 mm 1 mps 645 mmHg 92%
    19:00 +22°C° 1 mm 1 mps 645 mmHg 96%
    20:00 +21°C° 0.7 mm 1 mps 646 mmHg 96%
    21:00 +21°C° 0.7 mm 1 mps 646 mmHg 96%
    22:00 +21°C° 0.7 mm 1 mps 646 mmHg 97%
    23:00 +19°C° 1 mm 0 mps 646 mmHg 97%
    Show more